Wind_Speed
22 19 15 16 17 17 18 22 24 25 24 23 24 25 25 24 24 23 22 23 23 23 23 22 22 22 22 21 21 20 19 18 17 17 17 16 15 14 13 12 11 10 10 11 11 12 12 12 12 11 11 11 11 11 11 10 8 8 8 9 10 9 8
21 19 15 14 15 16 18 21 24 26 25 25 26 27 26 24 24 24 23 23 24 24 23 23 23 23 23 22 21 20 19 18 17 18 18 17 16 15 14 12 11 11 12 12 12 12 12 12 12 12 13 12 12 13 12 11 10 10 10 10 10 9 9
21 20 15 13 14 16 17 20 24 26 28 28 27 27 26 25 24 24 24 23 24 25 23 23 23 24 24 23 21 20 19 18 18 19 19 18 17 16 15 13 13 13 13 12 13 13 13 12 12 12 13 13 14 14 13 12 12 12 11 11 11 11 11
21 22 19 15 15 15 17 20 23 26 28 28 26 25 24 24 23 24 24 24 25 25 23 23 24 25 24 23 22 21 20 20 20 20 20 19 19 17 16 15 15 14 14 13 14 14 13 13 13 13 13 14 15 15 14 14 14 13 13 13 13 13 13
20 22 21 18 16 16 17 18 21 24 25 26 26 26 25 24 23 24 24 24 24 24 24 25 25 25 24 23 22 21 21 21 22 22 21 21 20 18 17 16 16 15 14 14 14 14 14 15 14 14 15 15 16 16 16 16 15 15 15 15 15 15 14
19 20 21 19 18 17 18 19 20 23 24 25 26 28 28 27 25 25 25 25 25 25 25 26 25 24 24 24 23 22 22 22 23 22 21 21 20 19 18 17 17 16 15 14 14 15 15 15 15 15 16 16 17 18 19 18 17 17 17 18 17 16 15
17 18 21 22 21 20 19 20 21 24 25 25 26 28 28 28 27 26 25 25 26 25 25 25 25 25 24 24 24 23 24 24 23 22 21 20 20 19 19 18 17 16 15 15 15 16 16 16 16 16 17 17 18 20 20 20 19 19 19 19 18 17 16
15 17 21 23 23 20 20 21 21 23 24 24 25 26 27 28 28 27 26 27 27 26 26 26 25 25 25 24 25 25 25 24 23 22 21 20 20 20 20 19 18 17 17 17 17 17 17 16 16 17 18 19 19 20 21 21 20 20 19 18 18 17 15
16 17 21 24 22 20 21 23 23 23 24 24 24 25 28 28 28 27 27 28 27 26 26 26 26 26 26 26 26 26 26 25 23 22 21 21 21 21 21 20 20 19 18 18 18 17 16 16 17 18 19 19 19 20 21 22 22 21 19 18 18 17 16
20 19 22 24 24 21 21 24 26 26 25 25 25 26 29 29 28 27 27 28 27 27 27 27 27 26 27 27 27 27 26 25 24 23 22 22 22 22 22 21 21 20 19 19 19 17 16 16 17 18 18 18 19 20 22 23 22 21 19 18 18 18 16
24 22 23 26 26 23 22 23 27 28 28 28 28 29 29 29 27 26 27 27 27 27 27 27 27 27 28 28 28 27 26 25 24 24 23 23 23 22 22 22 21 21 20 20 19 18 16 16 16 18 18 18 19 21 22 23 22 20 19 19 19 18 16
24 22 23 27 29 25 21 22 26 29 31 32 31 30 29 27 26 26 27 28 28 27 27 27 28 28 29 28 28 27 26 26 26 25 24 24 23 23 22 22 22 21 20 20 19 18 16 15 16 16 17 19 20 21 22 23 22 20 19 19 18 18 17
23 23 24 28 28 23 20 22 25 29 33 32 30 30 29 27 27 28 29 29 29 27 27 28 28 29 29 29 28 27 26 26 27 26 25 24 23 23 22 22 22 21 21 20 20 19 16 15 15 16 17 18 20 21 22 23 22 20 19 19 19 18 17
21 24 27 27 26 24 23 23 25 29 32 30 29 29 28 27 28 29 30 30 28 27 27 28 28 29 29 28 28 27 26 26 27 26 25 24 23 23 22 21 22 21 21 21 20 19 17 15 15 16 18 19 20 21 23 23 21 21 21 20 19 19 18
20 26 28 25 23 25 25 23 23 27 30 30 30 29 28 28 29 31 31 31 29 28 28 28 28 28 28 28 27 27 26 26 26 26 26 24 23 23 21 22 22 23 22 22 21 19 17 16 16 17 19 21 22 22 23 23 22 22 22 21 21 20 20
21 26 27 22 22 25 25 23 24 27 30 31 31 31 29 29 31 32 32 31 30 29 30 29 28 28 27 27 26 26 26 26 26 26 26 24 23 22 22 22 23 23 23 22 21 19 17 16 17 18 21 22 23 23 23 23 23 23 23 22 21 20 20
22 26 25 20 21 24 23 24 25 26 29 31 32 32 31 31 32 33 33 31 30 30 29 28 26 26 26 26 25 25 26 26 26 26 25 23 22 22 23 23 23 23 23 23 21 19 18 17 17 18 20 22 23 23 24 24 24 24 23 23 21 20 20
23 24 23 21 22 24 24 25 26 25 27 29 31 33 32 33 33 33 32 30 29 29 27 26 25 25 25 25 25 26 26 26 25 24 24 23 23 23 23 23 23 24 24 24 22 20 19 18 18 18 19 21 23 23 24 24 25 24 23 23 22 21 21
22 22 21 22 26 27 24 25 26 26 26 28 31 33 34 35 34 32 30 29 29 28 26 26 25 25 25 25 25 26 26 24 24 23 24 24 23 23 23 23 23 24 25 24 23 21 20 19 19 19 19 21 22 23 24 24 25 25 24 24 23 24 24
22 20 20 23 27 27 25 25 27 27 27 29 30 31 35 38 34 31 29 28 27 27 26 26 26 25 25 24 25 25 24 23 23 24 24 24 23 23 23 23 24 24 25 25 24 23 21 21 20 20 20 22 23 23 24 25 26 26 25 25 26 26 26
22 21 22 24 26 26 26 26 27 28 29 29 28 28 34 38 35 31 28 25 25 25 26 27 26 25 24 23 23 24 23 23 23 24 24 24 24 24 24 24 24 24 25 25 24 24 23 22 22 22 22 23 25 25 26 27 28 27 27 27 28 28 27
23 23 24 25 26 27 27 26 26 28 29 29 29 30 33 36 36 33 27 25 25 26 27 27 27 26 24 23 23 23 23 23 24 24 25 25 25 25 24 24 24 24 25 25 25 25 24 25 24 24 24 25 26 27 29 30 29 29 28 28 29 28 28
24 25 25 26 27 28 28 27 28 29 29 30 32 32 34 36 38 36 31 28 27 27 28 29 28 27 25 24 23 22 23 23 24 25 25 25 25 24 24 24 25 25 25 26 26 26 26 27 27 26 26 27 28 28 29 29 29 29 29 29 29 29 29
25 25 25 27 28 29 28 28 29 29 28 31 33 33 33 36 39 38 34 30 29 28 29 30 30 28 26 25 24 22 22 23 24 24 24 24 25 24 24 25 25 26 26 26 27 27 27 29 29 29 28 29 29 29 28 27 28 29 29 30 30 31 31
27 25 26 28 28 29 29 28 28 27 28 31 34 33 31 33 36 36 33 31 30 30 30 31 31 30 27 26 25 23 23 24 25 24 24 24 25 25 25 25 26 27 27 27 27 28 28 29 30 30 29 29 30 30 29 30 30 31 31 31 32 33 33
28 27 27 28 28 28 29 29 28 27 29 32 34 33 31 31 32 32 32 32 31 31 32 33 33 32 30 28 26 26 25 26 26 25 25 25 26 26 27 26 27 27 28 28 28 28 28 28 29 29 29 29 30 30 30 31 32 32 32 33 33 34 35
29 28 27 27 28 28 28 29 29 28 31 33 33 33 33 33 32 32 32 32 31 30 33 35 35 34 32 29 28 28 27 27 27 26 27 27 27 27 27 27 27 27 27 28 28 27 27 27 28 29 29 29 30 30 30 30 31 31 32 33 35 36 37
28 28 26 27 28 28 28 28 28 29 32 33 33 35 37 37 35 33 32 31 30 30 31 34 36 35 33 30 30 30 29 28 28 28 28 28 27 27 27 26 26 26 27 27 27 28 28 28 29 29 30 30 30 31 31 31 32 32 32 33 35 36 36
28 27 27 28 28 27 27 28 29 31 33 33 33 35 40 40 36 33 32 31 30 30 30 33 36 37 35 32 31 31 30 29 30 30 29 28 28 27 27 26 26 27 28 28 29 29 30 30 30 31 31 31 32 32 32 33 33 33 33 34 35 35 35
26 27 27 28 26 25 26 29 34 37 36 34 35 37 42 44 38 33 32 31 30 31 32 33 35 36 37 36 34 33 32 31 31 31 30 30 29 29 28 28 28 29 30 30 31 32 32 33 33 32 32 32 32 33 34 34 35 35 35 36 37 37 37
26 27 28 30 29 27 26 27 32 35 37 37 38 39 42 46 43 35 31 30 30 31 32 34 35 34 35 38 38 36 35 34 32 31 31 31 30 30 31 31 31 31 32 33 34 34 34 34 34 34 34 34 34 35 35 36 36 37 36 37 38 38 39
26 27 28 30 28 26 25 24 24 27 33 39 42 42 43 47 46 39 32 29 31 33 35 37 36 34 34 36 39 39 39 36 34 33 32 32 32 32 33 33 33 33 33 33 33 34 34 34 34 34 35 35 36 36 36 36 38 38 38 39 39 39 40
25 26 26 26 23 22 22 24 24 25 30 35 39 43 46 48 46 39 31 28 29 33 36 38 38 37 37 37 38 40 40 38 35 34 33 33 33 33 33 33 34 34 34 34 34 34 34 34 34 35 36 35 35 35 36 37 38 38 39 39 40 40 40
24 24 24 24 24 24 24 26 26 26 28 31 34 40 46 46 42 35 28 26 27 31 35 38 38 38 39 39 39 41 40 37 35 34 34 34 34 33 32 32 33 34 34 35 35 35 35 36 36 35 34 34 33 34 35 35 36 37 38 39 40 41 42
24 24 23 21 23 24 26 28 29 29 31 34 36 40 45 45 41 35 30 29 30 31 34 38 39 38 39 40 40 40 38 35 35 35 35 35 35 34 33 33 34 34 34 35 36 36 36 36 36 34 33 33 33 34 34 35 36 37 39 40 40 41 42
23 23 23 21 21 25 29 33 33 32 33 36 39 41 42 44 43 38 33 32 32 32 35 39 40 39 39 39 39 38 36 35 35 35 36 36 36 36 36 35 35 35 36 37 37 37 36 35 34 33 33 33 33 34 35 37 38 39 39 39 41 42 43
23 21 22 21 22 28 33 34 31 26 26 31 38 40 40 41 40 37 34 34 33 33 37 41 41 39 38 37 36 35 35 35 35 35 36 35 35 35 36 36 36 37 38 39 39 37 35 34 34 34 33 34 34 36 37 39 40 40 41 42 43 44 45
Wind_Direction
271 277 279 258 243 241 233 225 222 221 219 221 223 223 219 218 221 223 225 224 221 221 220 219 220 222 224 226 227 228 229 228 229 231 233 236 238 239 237 236 236 234 233 234 235 235 236 239 243 245 245 247 250 248 246 247 244 237 231 226 221 221 224
264 268 272 262 247 241 234 226 221 220 222 224 226 226 222 219 222 225 225 223 220 218 218 219 222 223 225 226 225 226 228 231 233 236 238 240 242 242 239 236 234 232 231 231 231 231 231 234 236 240 245 248 249 250 248 246 244 238 233 230 230 232 234
257 256 258 257 247 241 240 230 222 221 222 224 225 225 222 218 222 226 223 220 218 217 219 220 222 224 226 227 225 224 226 229 232 237 242 244 245 244 242 238 234 232 231 230 228 227 227 229 232 237 245 249 249 249 249 247 243 239 235 234 236 239 242
254 249 248 253 252 242 237 231 225 224 225 226 226 226 225 221 220 222 222 218 217 219 221 222 223 224 226 228 227 225 225 227 231 236 242 246 246 245 242 239 236 233 231 228 227 226 227 229 232 236 242 247 249 247 247 247 244 240 238 238 241 245 248
254 249 245 248 253 246 237 232 226 225 228 228 225 222 224 225 222 222 224 222 220 221 222 221 223 225 225 227 228 227 228 229 232 236 240 244 246 245 242 240 238 237 234 229 228 228 229 232 235 239 242 245 246 244 244 245 243 240 240 242 245 249 252
251 250 248 246 252 253 246 241 232 225 225 225 221 218 218 221 223 223 225 225 222 220 221 221 223 225 225 226 228 229 230 233 235 238 241 244 246 245 243 240 238 238 237 233 232 233 234 236 239 242 245 246 244 242 241 242 240 237 239 243 246 249 251
253 250 247 244 248 250 243 242 238 228 224 221 218 219 220 220 220 219 220 224 222 219 220 221 223 225 225 227 229 230 232 235 239 242 244 245 246 245 243 240 237 236 236 237 238 241 242 243 245 246 246 245 243 241 241 241 240 238 238 241 246 247 246
255 251 248 247 251 251 241 239 241 234 227 223 219 219 219 219 219 216 216 220 220 218 218 220 222 224 225 227 229 231 233 236 240 244 246 247 246 245 242 240 238 235 236 238 241 244 247 247 246 246 244 244 242 241 241 241 241 239 237 240 246 246 242
244 241 244 248 253 254 246 239 237 235 231 225 219 215 216 218 220 217 215 218 218 216 218 220 221 223 225 226 228 231 234 237 241 245 247 247 245 244 242 241 239 238 239 242 244 246 248 248 246 244 243 243 242 242 244 243 241 239 238 242 247 246 240
242 230 231 241 246 252 255 242 230 230 231 225 218 213 214 218 218 216 216 218 218 216 218 221 222 223 224 226 229 232 236 240 243 246 247 247 245 243 243 243 242 242 243 246 249 250 250 249 246 243 242 242 242 242 244 244 241 239 239 240 243 243 238
247 235 224 230 236 243 254 245 231 228 226 222 219 215 213 214 214 214 217 218 218 217 219 221 223 224 225 226 229 233 237 241 245 247 248 247 245 243 243 244 245 245 245 248 252 254 252 249 247 243 240 239 239 240 242 243 242 240 239 238 239 238 233
244 241 229 228 229 234 246 245 237 233 225 217 214 212 211 209 210 214 217 218 219 219 220 222 225 227 229 230 232 235 239 243 246 247 248 248 246 244 243 245 246 246 246 248 252 254 252 249 246 243 239 237 237 239 241 243 242 241 239 239 237 234 229
239 240 235 232 230 232 243 245 241 238 230 219 213 210 208 207 210 213 216 217 219 222 223 226 228 231 233 235 237 240 242 245 247 248 249 248 246 244 244 245 246 246 245 247 250 253 253 249 245 241 239 238 237 238 241 242 242 240 238 237 237 235 232
240 239 234 230 227 229 236 241 241 238 232 227 223 216 209 211 216 214 215 218 221 225 229 231 233 236 237 240 242 244 246 247 248 249 248 246 245 245 245 245 246 245 244 246 248 253 254 250 245 241 239 239 238 239 241 241 240 237 234 233 234 234 234
242 239 233 229 226 226 229 236 239 236 232 230 230 224 211 212 221 217 215 219 222 226 231 233 236 238 240 242 244 247 249 249 249 248 247 245 244 245 245 245 246 244 244 244 246 250 253 250 245 240 239 240 240 240 241 241 239 235 230 230 232 232 233
242 239 236 236 234 230 230 234 234 236 236 232 230 227 215 213 222 222 218 221 224 227 230 232 235 238 241 243 244 246 248 249 248 247 246 245 245 246 245 245 245 244 244 244 245 247 250 250 246 240 238 240 241 242 242 242 240 235 230 230 232 232 235
244 240 238 240 241 238 237 236 233 236 239 234 229 228 221 217 224 225 223 225 226 226 228 231 234 237 240 242 244 246 247 247 246 245 245 245 245 246 246 246 245 245 245 246 245 245 247 249 249 244 239 239 240 241 242 242 241 237 234 233 234 237 240
247 244 240 241 242 243 242 239 237 237 238 236 233 232 226 222 225 225 225 228 227 226 228 230 232 236 240 242 244 245 246 245 245 245 245 245 245 245 246 247 247 245 245 246 246 245 245 248 251 248 241 237 238 239 240 240 241 239 238 238 239 241 245
249 246 241 239 242 246 246 242 239 237 237 236 239 239 232 226 225 223 223 227 227 227 229 231 232 235 237 240 242 244 245 244 245 245 244 244 244 245 246 246 246 246 246 247 247 246 245 246 249 249 244 239 237 238 238 239 241 243 244 245 246 247 250
254 250 243 242 245 249 251 247 241 238 237 237 241 244 235 227 224 221 221 225 228 229 232 234 236 236 236 238 240 242 243 243 244 244 244 244 243 243 245 245 246 247 247 248 248 247 247 247 247 248 247 243 240 239 240 241 243 244 247 249 251 253 256
261 257 250 246 249 252 253 250 242 238 239 240 241 241 233 228 225 219 220 227 232 234 237 240 243 241 238 238 238 239 240 240 242 243 242 243 242 241 242 243 245 246 247 249 250 250 250 249 248 247 246 246 243 241 242 244 245 246 248 251 255 257 260
263 261 255 251 253 254 253 252 246 240 240 241 240 237 233 231 228 223 224 235 239 239 240 243 246 246 241 238 238 239 240 240 240 241 241 241 241 241 240 241 243 245 246 249 250 250 251 250 250 248 245 245 244 242 243 245 247 248 250 253 257 259 260
262 261 259 258 258 257 253 251 249 245 243 242 241 239 237 237 234 230 232 239 241 241 241 241 244 246 241 238 240 242 242 241 239 238 239 241 241 241 240 240 242 243 244 246 248 249 250 251 251 250 247 246 247 247 247 249 251 252 252 254 257 259 259
265 263 261 260 258 257 255 253 252 249 245 244 243 242 241 241 238 234 234 238 241 243 243 241 243 245 240 238 242 246 247 244 241 239 239 240 241 241 240 240 242 243 244 245 247 248 250 252 252 252 250 250 250 251 251 250 251 253 253 254 256 257 258
268 265 261 260 259 257 256 255 253 248 243 244 245 243 243 241 237 233 235 240 242 243 242 241 243 245 243 241 244 249 251 248 245 243 242 242 243 243 242 242 243 245 246 247 248 249 250 252 253 253 253 253 253 254 252 250 249 251 253 255 257 258 260
271 266 262 260 260 259 256 254 252 246 241 244 245 243 240 237 233 233 236 238 240 239 238 237 240 242 244 244 246 248 251 249 246 245 244 244 245 246 246 246 246 246 248 249 250 250 249 249 251 252 253 253 255 255 253 252 252 252 254 256 258 259 260
274 270 264 258 257 258 257 253 250 243 240 243 244 241 237 234 234 235 235 236 238 237 234 235 239 242 243 245 246 249 251 250 246 243 243 244 245 246 247 247 247 247 247 247 248 248 247 246 248 252 256 256 256 256 255 255 254 254 255 256 257 257 257
276 272 264 256 253 254 252 249 247 242 239 241 242 240 237 234 233 235 234 234 238 237 234 235 240 244 246 247 248 250 251 252 249 245 243 244 246 247 247 248 248 247 245 244 244 245 246 246 248 253 257 260 261 261 260 259 258 257 257 257 257 256 256
277 274 264 254 251 251 250 248 244 237 236 239 238 236 234 231 230 233 234 234 239 240 237 236 239 243 247 248 247 247 248 251 252 248 244 243 245 247 248 248 248 247 245 244 244 245 247 249 252 255 258 261 264 265 264 264 263 261 260 260 259 259 259
276 272 261 251 247 245 248 253 249 239 234 236 235 230 229 229 228 232 236 235 238 243 242 239 239 242 245 247 248 246 246 249 251 248 244 242 244 247 249 249 249 250 249 249 249 250 251 253 255 257 258 260 263 265 266 267 266 264 263 263 264 264 263
276 270 259 253 247 239 242 256 257 242 230 229 231 228 229 231 230 231 238 240 241 243 241 238 238 240 241 244 248 248 247 248 249 246 242 240 242 246 249 251 251 251 252 252 253 253 255 257 258 259 259 261 263 266 267 266 265 263 263 262 263 264 264
281 276 266 260 250 235 236 253 259 244 230 227 227 225 228 232 230 230 239 245 244 244 240 237 237 236 235 239 244 246 246 247 249 246 241 240 242 244 249 252 253 254 254 254 255 256 256 257 259 260 261 263 264 265 265 264 263 262 261 260 261 263 265
283 282 278 267 246 225 229 245 251 248 242 236 228 224 226 229 228 230 239 245 245 245 244 241 239 236 234 236 240 242 243 245 247 246 241 240 241 244 248 252 255 257 257 256 256 257 258 259 261 261 260 260 260 261 261 262 262 262 262 263 265 266 268
279 281 283 271 247 229 231 242 247 246 245 243 236 230 228 227 229 237 249 253 252 250 247 244 242 238 237 237 238 240 242 243 245 245 243 243 244 245 248 252 256 260 261 261 261 261 260 260 259 258 256 256 257 258 260 263 265 266 268 269 270 270 271
280 280 276 262 245 236 234 238 243 242 240 242 240 232 227 227 231 241 252 258 260 258 252 247 243 237 236 236 236 239 242 243 243 244 244 245 246 248 249 251 255 258 261 263 265 263 260 259 257 257 256 257 258 260 262 265 267 269 270 271 272 273 274
281 281 275 263 253 249 242 236 236 238 239 239 235 228 226 228 231 236 246 254 258 257 253 248 241 235 234 235 238 241 243 243 243 244 246 248 250 252 253 254 254 256 257 259 259 257 256 257 257 258 259 260 261 263 264 265 266 267 269 270 272 274 275
274 274 275 271 256 245 240 237 238 248 253 244 234 229 229 231 233 237 246 252 254 254 252 245 237 234 237 239 240 242 242 243 244 246 248 251 253 256 258 257 255 254 255 255 253 252 252 254 256 258 259 259 260 261 262 264 265 268 270 271 273 274 276
Height
5771 5771 5770 5771 5772 5774 5775 5777 5778 5779 5780 5782 5783 5783 5784 5785 5786 5787 5789 5789 5790 5792 5793 5794 5795 5797 5799 5801 5802 5803 5803 5803 5804 5804 5805 5806 5806 5806 5806 5806 5806 5806 5806 5807 5807 5808 5808 5808 5808 5808 5808 5808 5808 5808 5808 5808 5808 5808 5808 5807 5807 5807 5807
5769 5770 5770 5770 5772 5773 5774 5775 5776 5778 5779 5780 5780 5781 5782 5783 5784 5785 5787 5788 5788 5789 5791 5792 5793 5795 5797 5798 5800 5801 5801 5801 5802 5802 5803 5804 5804 5804 5804 5804 5804 5804 5805 5805 5806 5806 5807 5807 5807 5807 5807 5807 5806 5806 5807 5807 5808 5808 5807 5807 5807 5807 5807
5768 5768 5769 5769 5770 5772 5772 5773 5774 5775 5776 5777 5778 5778 5780 5781 5782 5783 5784 5785 5786 5787 5789 5790 5791 5793 5794 5796 5797 5799 5799 5800 5801 5801 5801 5802 5802 5802 5803 5803 5803 5803 5804 5804 5805 5805 5805 5806 5806 5806 5806 5805 5805 5805 5805 5806 5807 5807 5807 5807 5807 5807 5807
5766 5766 5767 5768 5769 5770 5770 5771 5772 5773 5774 5776 5777 5778 5779 5779 5780 5781 5782 5783 5785 5786 5787 5788 5789 5790 5792 5793 5795 5796 5797 5799 5799 5799 5800 5800 5800 5801 5801 5801 5801 5802 5802 5803 5804 5804 5804 5804 5804 5804 5804 5804 5804 5803 5804 5805 5806 5806 5806 5806 5806 5806 5806
5764 5764 5765 5767 5768 5769 5769 5769 5770 5772 5773 5774 5775 5775 5776 5777 5778 5780 5781 5782 5783 5784 5785 5786 5787 5789 5790 5791 5792 5794 5795 5797 5798 5798 5798 5798 5799 5799 5800 5800 5800 5800 5801 5801 5802 5802 5803 5803 5803 5803 5803 5802 5802 5802 5802 5803 5804 5805 5805 5805 5805 5805 5805
5761 5763 5764 5765 5766 5767 5767 5767 5768 5769 5770 5771 5771 5771 5772 5774 5775 5778 5779 5780 5781 5782 5783 5784 5786 5787 5788 5789 5790 5792 5793 5794 5795 5796 5796 5797 5797 5797 5798 5798 5798 5798 5799 5800 5800 5800 5801 5801 5801 5801 5801 5801 5801 5800 5800 5801 5802 5803 5803 5803 5803 5804 5804
5759 5761 5762 5763 5763 5764 5765 5765 5766 5766 5766 5767 5768 5769 5770 5771 5772 5775 5777 5778 5779 5780 5781 5783 5784 5785 5786 5788 5789 5790 5792 5792 5793 5794 5794 5795 5795 5795 5796 5796 5796 5797 5797 5798 5798 5798 5799 5799 5800 5800 5800 5799 5799 5799 5799 5799 5800 5801 5801 5801 5801 5802 5802
5757 5759 5761 5761 5761 5763 5764 5764 5764 5764 5764 5764 5765 5767 5768 5769 5770 5772 5774 5775 5777 5778 5779 5781 5782 5783 5785 5786 5788 5789 5790 5791 5791 5792 5792 5793 5793 5793 5794 5794 5795 5795 5795 5796 5796 5797 5797 5797 5798 5798 5798 5797 5797 5797 5797 5797 5798 5798 5799 5800 5800 5800 5801
5754 5756 5758 5758 5760 5761 5761 5761 5761 5762 5762 5762 5763 5764 5765 5767 5768 5770 5772 5773 5774 5776 5777 5779 5780 5781 5783 5784 5786 5787 5788 5789 5789 5790 5790 5791 5791 5792 5792 5792 5793 5793 5793 5794 5794 5794 5795 5795 5795 5795 5795 5795 5795 5795 5795 5795 5796 5796 5797 5798 5798 5798 5799
5750 5751 5753 5755 5757 5758 5758 5757 5757 5757 5758 5759 5759 5760 5761 5763 5765 5767 5769 5771 5772 5774 5775 5777 5778 5779 5780 5782 5783 5785 5786 5786 5787 5787 5788 5789 5789 5790 5790 5791 5791 5791 5792 5791 5792 5792 5793 5793 5793 5793 5793 5793 5793 5793 5793 5793 5794 5795 5796 5797 5797 5797 5797
5745 5747 5749 5750 5752 5753 5754 5753 5753 5753 5754 5755 5755 5756 5757 5760 5762 5765 5767 5769 5770 5772 5774 5775 5776 5777 5778 5779 5781 5782 5783 5784 5784 5785 5786 5786 5787 5787 5788 5788 5789 5789 5790 5789 5789 5790 5790 5790 5790 5791 5791 5791 5791 5791 5791 5791 5792 5793 5794 5795 5796 5796 5796
5743 5745 5746 5746 5747 5749 5750 5751 5751 5751 5751 5751 5751 5752 5754 5757 5759 5762 5764 5766 5768 5770 5771 5772 5773 5774 5776 5777 5778 5780 5781 5781 5781 5782 5783 5784 5785 5785 5786 5786 5787 5787 5788 5787 5787 5787 5788 5788 5788 5788 5789 5789 5789 5789 5789 5789 5790 5792 5793 5793 5794 5794 5795
5742 5743 5744 5744 5745 5747 5748 5748 5748 5748 5749 5750 5750 5751 5752 5754 5757 5759 5762 5764 5765 5767 5769 5770 5771 5772 5773 5775 5776 5777 5778 5779 5779 5780 5781 5782 5782 5783 5783 5784 5784 5785 5785 5785 5785 5785 5786 5786 5786 5786 5787 5787 5787 5787 5787 5787 5789 5790 5791 5791 5791 5792 5793
5741 5741 5741 5741 5743 5745 5745 5744 5745 5745 5746 5749 5750 5751 5752 5754 5755 5757 5759 5761 5762 5764 5765 5767 5768 5770 5771 5773 5773 5774 5775 5776 5777 5777 5778 5779 5780 5780 5781 5781 5782 5782 5783 5783 5783 5783 5783 5784 5784 5784 5784 5785 5785 5785 5785 5785 5787 5788 5788 5789 5789 5790 5790
5739 5739 5739 5740 5741 5741 5741 5741 5742 5743 5744 5745 5748 5749 5751 5753 5754 5754 5756 5758 5759 5760 5762 5763 5765 5767 5769 5770 5771 5772 5773 5773 5774 5775 5776 5777 5778 5778 5778 5779 5779 5780 5780 5781 5781 5781 5781 5782 5782 5782 5782 5782 5782 5783 5783 5783 5784 5785 5786 5787 5787 5788 5789
5735 5736 5738 5739 5739 5738 5739 5739 5740 5740 5741 5742 5744 5747 5748 5750 5751 5752 5753 5755 5756 5757 5759 5760 5762 5764 5765 5767 5768 5769 5769 5770 5771 5772 5773 5774 5775 5775 5776 5776 5777 5777 5778 5778 5779 5779 5779 5780 5780 5780 5780 5780 5780 5780 5781 5781 5782 5783 5785 5785 5786 5786 5787
5730 5731 5734 5737 5736 5735 5736 5737 5737 5738 5738 5739 5741 5743 5745 5746 5748 5749 5750 5752 5753 5754 5756 5757 5759 5761 5762 5763 5765 5765 5766 5767 5768 5769 5770 5771 5772 5772 5773 5774 5775 5775 5775 5776 5777 5777 5777 5778 5778 5778 5778 5778 5778 5778 5778 5779 5780 5781 5783 5783 5784 5784 5784
5727 5728 5731 5734 5733 5732 5733 5734 5735 5735 5736 5737 5738 5741 5743 5743 5744 5746 5748 5749 5751 5752 5753 5754 5756 5758 5759 5760 5761 5762 5763 5764 5765 5766 5767 5768 5769 5769 5770 5771 5772 5772 5773 5773 5774 5775 5775 5776 5776 5776 5776 5777 5777 5777 5777 5777 5778 5779 5780 5781 5782 5782 5782
5725 5726 5730 5731 5729 5729 5730 5731 5732 5733 5734 5736 5736 5739 5741 5740 5740 5743 5745 5746 5748 5749 5750 5751 5752 5754 5756 5757 5758 5758 5759 5761 5762 5763 5764 5765 5766 5767 5767 5768 5769 5770 5770 5771 5771 5772 5773 5773 5774 5774 5774 5774 5775 5775 5775 5775 5775 5776 5777 5778 5779 5779 5779
5724 5725 5728 5727 5726 5726 5728 5729 5729 5730 5731 5732 5734 5736 5737 5736 5738 5740 5742 5743 5745 5746 5747 5748 5749 5751 5752 5753 5754 5755 5757 5758 5759 5760 5761 5762 5763 5763 5764 5765 5766 5767 5767 5768 5769 5770 5770 5771 5771 5772 5772 5772 5773 5773 5773 5773 5773 5773 5774 5774 5775 5776 5777
5722 5723 5724 5723 5723 5724 5725 5725 5726 5727 5728 5729 5731 5732 5733 5733 5735 5738 5739 5740 5742 5743 5744 5745 5746 5747 5749 5750 5751 5752 5753 5755 5756 5757 5758 5758 5759 5760 5761 5762 5763 5764 5765 5765 5766 5767 5768 5768 5769 5770 5770 5770 5770 5771 5771 5771 5771 5771 5772 5772 5772 5773 5774
5719 5719 5719 5720 5720 5720 5720 5722 5723 5724 5725 5726 5727 5728 5729 5730 5732 5734 5735 5737 5739 5740 5741 5741 5742 5744 5746 5747 5748 5749 5750 5752 5753 5754 5754 5755 5755 5756 5757 5758 5759 5760 5761 5762 5763 5764 5764 5765 5766 5767 5768 5768 5767 5768 5768 5768 5769 5769 5769 5770 5770 5770 5770
5715 5715 5716 5717 5717 5717 5717 5717 5719 5720 5721 5722 5723 5725 5726 5728 5729 5731 5732 5734 5735 5736 5737 5738 5739 5741 5743 5744 5745 5746 5747 5749 5750 5750 5751 5751 5752 5753 5754 5755 5756 5757 5758 5758 5759 5759 5760 5761 5762 5763 5765 5765 5764 5765 5766 5766 5766 5766 5767 5767 5767 5767 5767
5711 5712 5713 5713 5713 5713 5713 5713 5714 5716 5718 5718 5719 5721 5723 5725 5727 5728 5729 5730 5731 5733 5734 5735 5736 5738 5740 5741 5743 5744 5745 5745 5746 5747 5747 5748 5749 5750 5751 5752 5752 5753 5754 5754 5755 5756 5756 5757 5758 5759 5761 5761 5762 5762 5763 5763 5763 5763 5763 5763 5763 5763 5763
5708 5709 5709 5709 5710 5710 5710 5710 5711 5713 5715 5715 5715 5717 5719 5721 5723 5725 5727 5728 5728 5730 5731 5732 5733 5734 5736 5738 5740 5742 5742 5743 5743 5743 5744 5745 5746 5746 5748 5749 5749 5750 5750 5750 5751 5752 5753 5754 5755 5756 5757 5758 5758 5758 5759 5759 5759 5759 5759 5759 5759 5760 5760
5705 5705 5706 5706 5707 5707 5707 5707 5708 5710 5711 5711 5712 5714 5715 5717 5719 5721 5723 5724 5725 5727 5727 5728 5729 5731 5732 5735 5737 5739 5739 5740 5740 5740 5741 5741 5742 5743 5744 5745 5746 5746 5746 5747 5747 5749 5750 5751 5752 5752 5753 5754 5754 5754 5755 5755 5755 5755 5756 5756 5756 5756 5756
5701 5701 5702 5703 5703 5704 5704 5705 5705 5707 5707 5707 5708 5710 5712 5713 5715 5717 5719 5720 5721 5723 5724 5725 5726 5727 5729 5731 5733 5735 5736 5736 5737 5737 5737 5738 5739 5739 5740 5741 5742 5743 5743 5744 5744 5746 5747 5748 5748 5749 5749 5750 5750 5750 5751 5751 5751 5752 5752 5752 5752 5751 5752
5697 5697 5698 5698 5698 5699 5700 5701 5701 5702 5703 5704 5705 5707 5708 5710 5711 5713 5715 5716 5717 5719 5721 5722 5723 5724 5726 5728 5730 5731 5732 5733 5733 5734 5734 5735 5735 5736 5737 5738 5739 5739 5740 5741 5741 5742 5743 5744 5745 5746 5746 5746 5746 5746 5747 5747 5747 5747 5747 5747 5747 5747 5747
5694 5693 5694 5694 5694 5695 5695 5696 5697 5698 5699 5700 5701 5702 5704 5705 5708 5710 5712 5713 5714 5715 5717 5718 5719 5720 5722 5724 5726 5728 5729 5729 5729 5730 5731 5732 5732 5733 5734 5735 5735 5736 5737 5738 5738 5739 5739 5740 5741 5742 5742 5742 5742 5742 5742 5742 5742 5743 5743 5742 5742 5742 5743
5691 5690 5690 5690 5690 5690 5691 5693 5693 5693 5695 5697 5697 5698 5699 5701 5704 5706 5708 5709 5711 5711 5713 5715 5715 5716 5718 5720 5721 5723 5725 5725 5726 5726 5728 5729 5729 5729 5730 5731 5732 5733 5733 5734 5735 5735 5736 5736 5737 5738 5738 5738 5738 5737 5738 5738 5738 5738 5738 5737 5737 5737 5737
5688 5687 5686 5686 5686 5687 5688 5689 5688 5688 5691 5693 5693 5696 5697 5698 5700 5702 5704 5706 5707 5708 5709 5710 5711 5713 5714 5715 5716 5718 5720 5721 5721 5722 5724 5725 5725 5725 5726 5726 5728 5729 5729 5730 5730 5731 5732 5732 5732 5733 5733 5733 5733 5733 5733 5733 5733 5733 5733 5733 5732 5732 5731
5685 5684 5683 5683 5683 5683 5684 5685 5685 5686 5687 5688 5689 5692 5694 5694 5696 5698 5700 5701 5703 5704 5705 5706 5707 5708 5710 5711 5712 5713 5715 5716 5717 5718 5719 5720 5721 5721 5721 5722 5723 5724 5725 5725 5726 5726 5727 5727 5728 5728 5728 5728 5728 5728 5728 5728 5728 5728 5728 5728 5727 5727 5726
5682 5681 5680 5680 5680 5681 5682 5682 5683 5685 5685 5685 5686 5689 5690 5690 5692 5694 5695 5697 5698 5700 5701 5702 5702 5703 5705 5706 5708 5709 5710 5711 5712 5713 5714 5716 5716 5717 5717 5717 5718 5719 5720 5721 5721 5722 5722 5723 5723 5723 5723 5723 5722 5722 5722 5722 5722 5722 5722 5722 5723 5722 5722
5679 5678 5678 5678 5678 5679 5680 5680 5681 5682 5683 5684 5685 5686 5686 5687 5688 5689 5690 5691 5693 5696 5697 5698 5698 5699 5700 5702 5703 5704 5706 5707 5708 5709 5710 5711 5712 5713 5713 5714 5714 5715 5715 5716 5716 5717 5718 5718 5718 5718 5717 5717 5717 5717 5717 5717 5717 5717 5717 5717 5717 5717 5717
5676 5676 5676 5675 5675 5675 5677 5678 5678 5679 5679 5680 5681 5682 5682 5683 5684 5685 5686 5687 5689 5691 5692 5693 5694 5695 5696 5697 5698 5700 5701 5703 5704 5705 5705 5706 5707 5708 5709 5710 5710 5710 5711 5711 5712 5712 5713 5713 5712 5712 5712 5712 5713 5713 5713 5713 5713 5713 5712 5712 5711 5711 5710
5673 5673 5673 5673 5672 5671 5672 5673 5674 5674 5675 5675 5676 5677 5678 5679 5680 5682 5683 5684 5686 5687 5687 5688 5689 5690 5691 5692 5694 5695 5697 5698 5699 5700 5701 5701 5702 5703 5704 5705 5705 5706 5706 5706 5707 5707 5707 5707 5707 5708 5708 5708 5708 5709 5709 5709 5708 5708 5707 5707 5706 5705 5705
5671 5671 5670 5670 5670 5669 5669 5670 5671 5671 5672 5673 5672 5673 5674 5675 5676 5678 5680 5681 5682 5683 5683 5683 5684 5686 5687 5688 5690 5691 5692 5694 5695 5695 5696 5697 5697 5698 5699 5700 5700 5701 5701 5701 5701 5702 5702 5703 5703 5703 5704 5704 5704 5704 5704 5704 5703 5703 5702 5702 5701 5700 5699